Flag Weather past 2 weeks in Resolute Bay, Nunavut Territory, Canada

Now
-18 °F

Sunny.


Feels Like: -40 °F
Forecast: -18 / -7 °F
Wind: 12 mph from Northwest

Location: Resolute

Current Time: Nov 21, 2014 at 1:18:31 PM

Latest Report: Nov 21, 2014 at 12:00 PM


Visibility: 15 mi

Pressure: 29.33 "Hg

Humidity: 69%

Dew point: -26 °F

Location of Resolute BayLocation

Historic Weather in Resolute Bay — Graph

°F

Resolute Bay temperature yesterday

Maximum temperature yesterday: -4 °F (at 1:00 AM)
Minimum temperature yesterday: -18 °F (at 10:00 AM)
Average temperature yesterday: -14 °F

Past Weeks' High & Low Weather Summary

 TemperatureHumidityPressure
High7 °F (Nov 16, 11:00 PM)85% (Nov 10, 2:00 PM)30.56 "Hg (Nov 10, 2:00 PM)
Low-18 °F (Nov 19, 2:00 PM)56% (Nov 16, 11:00 PM)29.30 "Hg (Nov 21, 6:00 AM)
Average-8 °F77%30.05 "Hg
* Reported Nov 6 12:00 Noon — Nov 21 12:00 Noon, Resolute Bay, Weather by CustomWeather, © 2014

Note: Actual official high and low records may vary slightly from our data, if they occured in-between our weather recording intervals... More about our weather records

Advertising

Resolute Bay weather history for previous 24 hours

 ConditionsComfort  
Time TempWeatherWind HumidityBarometerVisibility
12:00 PM
Nov 21
-18 °FSunny.12 mph69%29.33 "Hg15 mi
11:00 AM-11 °FPassing clouds.6 mph63%29.31 "Hg15 mi
10:00 AM-13 °FPassing clouds.8 mph69%29.31 "Hg15 mi
9:00 AM-13 °FPassing clouds.3 mph69%29.31 "Hg15 mi
8:00 AM-11 °FSunny.3 mph70%29.31 "Hg15 mi
7:00 AM-13 °FSunny.25 mph63%29.31 "Hg15 mi
6:00 AM-18 °FSunny.29 mph75%29.30 "Hg15 mi
5:00 AM-17 °FClear.29 mph69%29.31 "Hg15 mi
4:00 AM-18 °FClear.26 mph75%29.31 "Hg15 mi
3:00 AM-18 °FClear.28 mph69%29.31 "Hg15 mi
2:00 AM-18 °FClear.29 mph75%29.32 "Hg15 mi
1:00 AM-17 °FSnow flurries. Clear.31 mph69%29.32 "Hg15 mi
12:00 AM-15 °FSnow flurries. Sunny.31 mph69%29.32 "Hg12 mi
11:00 PM
Nov 20
-17 °FSnow flurries. Clear.28 mph69%29.34 "Hg8 mi
10:00 PM-17 °FSnow flurries. Clear.31 mph69%29.36 "Hg8 mi
9:00 PM-15 °FSnow flurries. Clear.35 mph76%29.35 "Hg8 mi
8:00 PM-15 °FSnow flurries. Clear.14 mph69%29.40 "Hg15 mi
7:00 PM-15 °FSnow flurries. Clear.28 mph76%29.41 "Hg15 mi
6:00 PM-17 °FSnow flurries. Sunny.23 mph69%29.45 "Hg15 mi
5:00 PM-15 °FSnow flurries. Passing clouds.12 mph69%29.48 "Hg15 mi
4:00 PM-18 °FSnow flurries. Passing clouds.16 mph75%29.48 "Hg10 mi
3:00 PM-18 °FSnow flurries. Passing clouds.9 mph75%29.51 "Hg15 mi
2:00 PM-18 °FPassing clouds.16 mph69%29.52 "Hg15 mi
1:00 PM-18 °FSunny.20 mph69%29.54 "Hg10 mi
Weather by CustomWeather, © 2014

See weather overviewHow to use our weather pages